This is the latest recevied weather packets stored in our database for station/object KC3ULW-13. If no packets are shown the sender has not sent any weather packets the latest 1 day(s).
| Time | Temp. | Humidity | Pressure | Rain* | Wind** | Luminosity | Snow |
|---|---|---|---|---|---|---|---|
| 1778090393 | 12.22° C | 79% | 1012.9 hPa | 0 mm | - | 129 W/m² | - |
| 1778089786 | 12.78° C | 80% | 1013 hPa | 0 mm | - | 146 W/m² | - |
| 1778088272 | 12.78° C | 79% | 1012.8 hPa | 0 mm | - | 190 W/m² | - |
| 1778087666 | 12.22° C | 83% | 1012.9 hPa | 0 mm | - | 521 W/m² | - |
| 1778087364 | 11.67° C | 84% | 1012.9 hPa | 0 mm | - | 226 W/m² | - |
| 1778087060 | 11.67° C | 83% | 1013.1 hPa | 0 mm | - | 161 W/m² | - |
| 1778086759 | 11.11° C | 84% | 1012.9 hPa | 0 mm | - | 196 W/m² | - |
| 1778086457 | 11.67° C | 85% | 1012.8 hPa | 0 mm | - | 123 W/m² | - |
| 1778084943 | 11.11° C | 87% | 1012.5 hPa | 0 mm | - | 225 W/m² | - |
| 1778084338 | 10.56° C | 89% | 1012.6 hPa | 0 mm | - | 196 W/m² | - |
| 1778083430 | 10.56° C | 90% | 1012.3 hPa | 0 mm | - | 85 W/m² | - |
| 1778081394 | 10° C | 93% | 1012 hPa | 0 mm | - | 174 W/m² | - |
| 1778080789 | 10° C | 93% | 1012 hPa | 0 mm | - | 95 W/m² | - |
| 1778080486 | 10° C | 93% | 1011.8 hPa | 0 mm | - | 188 W/m² | - |
| 1778079879 | 10° C | 93% | 1011.7 hPa | 0 mm | - | 60 W/m² | - |
| 1778077760 | 10° C | 93% | 1010.8 hPa | 0 mm | - | 111 W/m² | - |
| 1778077458 | 10° C | 93% | 1011 hPa | 0 mm | - | 98 W/m² | - |
| 1778077156 | 10° C | 94% | 1011 hPa | 0 mm | - | 88 W/m² | - |
| 1778073822 | 10° C | 94% | 1010.3 hPa | 0 mm | - | 23 W/m² | - |
| 1778072006 | 10.56° C | 94% | 1009.4 hPa | 0 mm | - | 29 W/m² | - |
| 1778071098 | 10.56° C | 94% | 1008.8 hPa | 0 mm | - | 25 W/m² | - |
| 1778070797 | 10.56° C | 93% | 1009.6 hPa | 1.27 mm | - | 19 W/m² | - |
| 1778069585 | 13.33° C | 94% | 1009.3 hPa | 1.27 mm | - | 4 W/m² | - |
| 1778067469 | 13.89° C | 94% | 1008.5 hPa | 0 mm | - | 9 W/m² | - |
| 1778066560 | 13.89° C | 93% | 1008.4 hPa | 0 mm | - | 17 W/m² | - |
* Rain latest hour (hover to see other rain measurements)
** Current wind speed in m/s (hover to see current wind gust speed)